Location: Vinland
(47.7731°N, 122.6974°W)
Time: 23:17:15
(UTC+00:00)

S-56A Canister/Altair - Pass Details

Date: 01 April 2023
Orbit: 639 x 2492 km, 38.9° (Epoch: 02 June)

Event Time Altitude Azimuth Distance (km) Brightness Sun altitude
Rises 04:37:25 0° 268° (W) 5,051 12.7 -19.5°
Reaches altitude 10° 04:40:27 10° 264° (W) 4,277 12.0 -19.9°
Maximum altitude 04:52:13 55° 191° (S) 2,672 10.0 -21.6°
Enters shadow 05:00:07 30° 132° (SE) 3,706 10.4 -22.6°
